Date String (YYYY-MM-DD hh:mm:ss) UTC,Instrument flags,Ambient pressure (hPa),Sample flow (lpm),Bypass flow (lpm),Sample temperature (°C),Ambient temperature (°C),ASC tube jacket temperature (°C),LED temperature (°C),Box temperature (°C),Sample RH (%),Span deviation,Mass concentration (μg/m³),Mass concentration (μg/m³),Mass concentration (μg/m³)
DateTimeUTC,F1_M11,P_M11,Q1_M11,Q2_M11,T1_M11,T2_M11,T3_M11,T4_M11,T5_M11,U1_M11,ZSPAN_M11,X0_M11,X2_M11,X1_M11
2023-01-05 16:00:00,,0826.6,4.97,0.00,21.9,20.4,00.0,30.7,23.5,08.3,-000.2,0012.55,0008.69,0008.36
2023-01-05 16:01:00,,0826.6,4.97,0.00,21.9,20.2,00.0,30.7,23.4,08.4,-000.5,0012.80,0008.82,0008.49
2023-01-05 16:02:00,,0826.6,5.04,0.00,21.8,20.0,00.0,30.7,23.3,08.4,-000.4,0013.01,0008.98,0008.64
2023-01-05 16:03:00,,0826.5,4.99,0.00,21.8,19.8,00.0,30.7,23.2,08.5,-000.1,0013.28,0009.22,0008.88
2023-01-05 16:04:00,,0826.5,5.02,0.00,21.7,19.7,00.0,30.6,23.2,08.6,-000.1,0013.63,0009.49,0009.11
2023-01-05 16:05:00,,0826.5,4.99,0.00,21.7,19.7,00.0,30.6,23.2,08.6,0000.8,0014.03,0009.71,0009.32
2023-01-05 16:06:00,,0826.5,5.00,0.00,21.6,19.8,00.0,30.6,23.2,08.6,0001.4,0014.35,0009.87,0009.50
2023-01-05 16:07:00,,0826.5,5.00,0.00,21.6,20.5,00.0,30.6,23.3,08.6,0001.9,0014.59,0010.07,0009.70
2023-01-05 16:08:00,,0826.4,5.00,0.00,21.8,21.8,00.0,30.5,23.6,08.5,0002.3,0015.18,0010.33,0009.95
2023-01-05 16:09:00,,0826.5,4.99,0.00,21.9,22.3,00.0,30.6,23.8,08.5,0002.3,0015.60,0010.62,0010.25
2023-01-05 16:10:00,,0826.5,4.98,0.00,21.9,21.8,00.0,30.6,23.7,08.5,0002.1,0016.08,0010.95,0010.55
2023-01-05 16:11:00,,0826.4,5.07,0.00,21.9,21.2,00.0,30.6,23.6,08.6,0000.2,0016.17,0011.24,0010.84
2023-01-05 16:12:00,,0826.4,5.02,0.00,21.9,20.8,00.0,30.7,23.5,08.6,0000.3,0016.36,0011.49,0011.09
2023-01-05 16:13:00,,0826.5,5.00,0.00,21.8,20.5,00.0,30.7,23.4,08.6,0001.4,0016.60,0011.71,0011.28
2023-01-05 16:14:00,,0826.5,4.97,0.00,21.8,20.3,00.0,30.6,23.3,08.6,0002.0,0016.79,0011.85,0011.42
2023-01-05 16:15:00,,0826.5,4.98,0.00,21.8,20.1,00.0,30.6,23.3,08.6,0002.4,0016.94,0011.93,0011.52
2023-01-05 16:16:00,,0826.5,4.99,0.00,21.7,20.0,00.0,30.6,23.2,08.7,0002.6,0016.88,0012.02,0011.62
2023-01-05 16:17:00,,0826.5,5.01,0.00,21.7,19.9,00.0,30.6,23.2,08.7,0002.6,0016.89,0012.16,0011.75
2023-01-05 16:18:00,,0826.5,4.97,0.00,21.7,19.9,00.0,30.6,23.2,08.7,0002.8,0016.94,0012.20,0011.79
2023-01-05 16:19:00,,0826.5,4.98,0.00,21.7,20.0,00.0,30.6,23.2,08.7,0002.6,0017.01,0012.26,0011.84
2023-01-05 16:20:00,,0826.5,4.96,0.00,21.6,19.9,00.0,30.6,23.2,08.7,0002.7,0016.92,0012.33,0011.94
2023-01-05 16:21:00,,0826.5,4.97,0.00,21.6,19.9,00.0,30.5,23.1,08.7,0002.7,0016.78,0012.35,0011.98
2023-01-05 16:22:00,,0826.5,5.06,0.00,21.6,20.7,00.0,30.5,23.3,08.8,0002.6,0016.70,0012.34,0011.99
2023-01-05 16:23:00,,0826.5,5.00,0.00,21.8,22.0,00.0,30.5,23.7,08.7,0002.6,0016.59,0012.33,0012.00
2023-01-05 16:24:00,,0826.5,4.98,0.00,21.9,22.4,00.0,30.5,23.9,08.6,0002.2,0016.55,0012.26,0011.92
2023-01-05 16:25:00,,0826.5,4.97,0.00,21.9,21.8,00.0,30.6,23.7,08.6,0002.0,0016.41,0012.16,0011.86
2023-01-05 16:26:00,,0826.5,4.98,0.00,21.9,21.2,00.0,30.6,23.6,08.6,0001.7,0016.39,0012.12,0011.80
2023-01-05 16:27:00,,0826.5,4.97,0.00,21.9,20.8,00.0,30.6,23.4,08.5,0002.0,0016.12,0011.98,0011.68
2023-01-05 16:28:00,,0826.5,5.01,0.00,21.8,20.4,00.0,30.6,23.3,08.6,0001.8,0015.84,0011.83,0011.56
2023-01-05 16:29:00,,0826.5,5.05,0.00,21.7,20.0,00.0,30.6,23.2,08.7,0001.2,0015.70,0011.73,0011.48
2023-01-05 16:30:00,,0826.5,5.01,0.00,21.7,19.8,00.0,30.6,23.2,08.7,0001.3,0015.78,0011.75,0011.48
2023-01-05 16:31:00,,0826.5,5.01,0.00,21.7,19.8,00.0,30.6,23.2,08.7,0001.0,0015.68,0011.75,0011.46
2023-01-05 16:32:00,,0826.5,5.04,0.00,21.6,19.8,00.0,30.6,23.1,08.8,0000.5,0016.06,0011.84,0011.53
2023-01-05 16:33:00,,0826.5,4.99,0.00,21.6,19.8,00.0,30.6,23.1,08.8,0000.8,0016.13,0011.85,0011.55
2023-01-05 16:34:00,,0826.6,4.97,0.00,21.6,20.8,00.0,30.5,23.3,08.9,0001.1,0016.37,0011.80,0011.49
2023-01-05 16:35:00,,0826.7,4.98,0.00,21.8,22.0,00.0,30.5,23.6,08.8,0000.7,0016.71,0011.79,0011.46
2023-01-05 16:36:00,,0826.6,5.02,0.00,21.9,22.7,00.0,30.5,23.9,08.7,0000.3,0016.80,0011.79,0011.44
2023-01-05 16:37:00,,0826.5,5.05,0.00,22.0,22.1,00.0,30.6,23.8,08.7,0000.5,0016.88,0011.74,0011.39
2023-01-05 16:38:00,,0826.4,4.98,0.00,21.9,21.3,00.0,30.6,23.6,08.7,0000.4,0017.33,0011.76,0011.39
2023-01-05 16:39:00,,0826.5,4.99,0.00,21.9,20.6,00.0,30.7,23.4,08.6,0000.5,0017.31,0011.73,0011.34
2023-01-05 16:40:00,,0826.5,5.08,0.00,21.8,20.1,00.0,30.7,23.2,08.6,0000.9,0017.23,0011.68,0011.26
2023-01-05 16:41:00,,0826.5,4.96,0.00,21.7,19.8,00.0,30.6,23.1,08.6,0000.6,0017.00,0011.52,0011.10
2023-01-05 16:42:00,,0826.5,5.03,0.00,21.6,19.7,00.0,30.6,23.1,08.7,0000.7,0017.16,0011.45,0011.04
2023-01-05 16:43:00,,0826.5,5.00,0.00,21.6,19.7,00.0,30.6,23.1,08.7,0000.8,0017.45,0011.30,0010.89
2023-01-05 16:44:00,,0826.5,4.99,0.00,21.6,19.8,00.0,30.6,23.1,08.6,0000.3,0017.31,0011.10,0010.69
2023-01-05 16:45:00,,0826.5,5.00,0.00,21.5,19.6,00.0,30.5,23.0,08.5,0000.1,0017.49,0010.80,0010.37
2023-01-05 16:46:00,,0826.5,5.00,0.00,21.5,19.8,00.0,30.5,23.0,08.4,0000.5,0017.34,0010.51,0010.06
2023-01-05 16:47:00,,0826.5,5.01,0.00,21.6,21.2,00.0,30.5,23.3,08.7,0000.9,0017.36,0010.41,0009.98
2023-01-05 16:48:00,,0826.5,5.01,0.00,21.7,22.4,00.0,30.5,23.7,08.6,0000.7,0017.18,0010.35,0009.93
2023-01-05 16:49:00,,0826.5,4.98,0.00,21.9,22.8,00.0,30.5,23.9,08.4,0000.0,0016.60,0010.19,0009.78
2023-01-05 16:50:00,,0826.5,4.98,0.00,21.9,22.3,00.0,30.6,23.8,08.3,0000.0,0016.48,0010.03,0009.63
2023-01-05 16:51:00,,0826.5,4.98,0.00,21.9,21.7,00.0,30.6,23.8,08.2,0000.0,0016.18,0009.78,0009.42
2023-01-05 16:52:00,,0826.5,5.07,0.00,21.9,21.3,00.0,30.7,23.7,08.2,0000.0,0015.89,0009.55,0009.22
2023-01-05 16:53:00,,0826.5,5.01,0.00,21.9,21.0,00.0,30.7,23.6,08.2,0000.0,0015.37,0009.30,0008.97
2023-01-05 16:54:00,,0826.5,4.97,0.00,21.9,20.8,00.0,30.7,23.6,08.2,0000.0,0014.65,0009.07,0008.75
2023-01-05 16:55:00,,0826.5,5.07,0.00,21.9,20.6,00.0,30.7,23.5,08.2,0000.0,0014.19,0008.94,0008.61
2023-01-05 16:56:00,,0826.5,5.00,0.00,21.9,20.5,00.0,30.7,23.5,08.2,0000.0,0013.57,0008.92,0008.59
2023-01-05 16:57:00,,0826.5,4.98,0.00,21.9,20.4,00.0,30.7,23.5,08.3,0000.0,0012.90,0008.99,0008.68
2023-01-05 16:58:00,,0826.5,5.05,0.00,21.8,20.4,00.0,30.7,23.5,08.3,0000.0,0012.54,0008.85,0008.55
2023-01-05 16:59:00,,0826.5,5.00,0.00,21.8,20.3,00.0,30.7,23.4,08.2,0000.0,0012.31,0008.62,0008.32
